TimeMDT,TemperatureF,Dew PointF,Humidity,Sea Level PressureIn,VisibilityMPH,Wind Direction,Wind SpeedMPH,Gust SpeedMPH,PrecipitationIn,Events,Conditions,WindDirDegrees,DateUTC
12:56 AM,52.0,46.0,80,29.82,-9999.0,Calm,Calm,-,N/A,,Unknown,0,2013-10-02 06:56:00
1:56 AM,52.0,46.0,80,29.81,-9999.0,West,3.5,-,N/A,,Unknown,280,2013-10-02 07:56:00
2:56 AM,51.1,46.0,83,29.79,-9999.0,Calm,Calm,-,N/A,,Unknown,0,2013-10-02 08:56:00
3:56 AM,48.9,46.0,90,29.78,-9999.0,WSW,4.6,-,N/A,,Unknown,240,2013-10-02 09:56:00
4:56 AM,52.0,46.9,83,29.76,-9999.0,West,5.8,-,N/A,,Unknown,260,2013-10-02 10:56:00
5:56 AM,48.9,45.0,86,29.78,-9999.0,Calm,Calm,-,N/A,,Unknown,0,2013-10-02 11:56:00
6:56 AM,50.0,46.0,86,29.81,-9999.0,SW,3.5,-,N/A,,Unknown,220,2013-10-02 12:56:00
7:56 AM,55.0,48.9,80,29.83,-9999.0,Calm,Calm,-,N/A,,Unknown,0,2013-10-02 13:56:00
8:56 AM,64.0,48.9,58,29.81,-9999.0,NW,4.6,-,N/A,,Unknown,310,2013-10-02 14:56:00
9:56 AM,72.0,48.0,43,29.80,-9999.0,NNW,5.8,-,N/A,,Unknown,340,2013-10-02 15:56:00
10:56 AM,75.0,44.1,33,29.78,-9999.0,Variable,3.5,-,N/A,,Unknown,0,2013-10-02 16:56:00
11:56 AM,79.0,44.1,29,29.76,-9999.0,Calm,Calm,-,N/A,,Unknown,0,2013-10-02 17:56:00
12:56 PM,81.0,42.1,25,29.74,-9999.0,Calm,Calm,-,N/A,,Unknown,0,2013-10-02 18:56:00
1:56 PM,82.0,42.1,24,29.71,-9999.0,Variable,3.5,-,N/A,,Unknown,0,2013-10-02 19:56:00
2:56 PM,82.9,41.0,23,29.69,-9999.0,Calm,Calm,-,N/A,,Unknown,0,2013-10-02 20:56:00
3:56 PM,84.0,37.9,19,29.69,-9999.0,South,11.5,-,N/A,,Unknown,170,2013-10-02 21:56:00
4:56 PM,82.0,36.0,19,29.68,-9999.0,South,6.9,-,N/A,,Unknown,190,2013-10-02 22:56:00
5:56 PM,75.9,39.9,27,29.70,-9999.0,South,5.8,-,N/A,,Unknown,170,2013-10-02 23:56:00
6:56 PM,68.0,39.9,36,29.72,-9999.0,South,4.6,-,N/A,,Unknown,190,2013-10-03 00:56:00
7:56 PM,63.0,39.0,41,29.73,-9999.0,South,6.9,-,N/A,,Unknown,190,2013-10-03 01:56:00
8:56 PM,61.0,37.0,41,29.72,-9999.0,SSW,5.8,-,N/A,,Unknown,200,2013-10-03 02:56:00
9:56 PM,55.0,37.0,51,29.70,-9999.0,Calm,Calm,-,N/A,,Unknown,0,2013-10-03 03:56:00
10:56 PM,57.0,36.0,45,29.68,-9999.0,WSW,3.5,-,N/A,,Unknown,250,2013-10-03 04:56:00
11:56 PM,52.0,36.0,54,29.66,-9999.0,Calm,Calm,-,N/A,,Unknown,0,2013-10-03 05:56:00